Grand Junction, CO

9:11 PM MST on November 19, 2019 (GMT -0700)
Walker

Weather History for KGJT - September, 2019

Change the Weather History Date:

Tuesday, September 24, 2019

  Actual Average Record
Temperature  
Mean Temperature 61 °F 62 °F  
Max Temperature 81 °F 76 °F 89 °F (1966)
Min Temperature 41 °F 49 °F 35 °F (2000)
Degree Days  
Heating Degree Days 4 4  
Month to date heating degree days 30 41  
Since 1 July heating degree days 30 44  
Cooling Degree Days 0 1  
Month to date cooling degree days 143 97  
Year to date cooling degree days 1264 1116  
Growing Degree Days 11 (Base 50)    
Moisture  
Dew Point 30 °F    
Average Humidity 33    
Maximum Humidity 49    
Minimum Humidity 16    
Precipitation  
Precipitation 0.00 in 0.04 in 0.64 in (1986)
Month to date precipitation 0.24 0.95  
Year to date precipitation 7.10 6.80  
Snow  
Snow 0.00 in 0.00 in 0.00 in (2018)
Month to date snowfall 0.0 0.0  
Since 1 July snowfall 0.0 0.0  
Since 1 September snowfall 0.0 0.0  
Snow Depth 0.00 in    
Sea Level Pressure  
Sea Level Pressure 29.97 in    
Wind  
Wind Speed 6 mph (NE)    
Max Wind Speed 13 mph    
Max Gust Speed 19 mph    
Visibility 10 miles    
Events      
T = Trace of Precipitation, MM = Missing Value Source: NWS Daily Summary

Daily Weather History Graph

Daily Weather History Graph

Search for Another Location

Airport or City:

Astronomy

Sep. 24, 2019 Rise Set
Actual Time 7:03 AM MDT 7:08 PM MDT
Civil Twilight 6:36 AM MDT 7:34 PM MDT
Nautical Twilight 6:05 AM MDT 8:05 PM MDT
Astronomical Twilight 5:33 AM MDT 8:37 PM MDT
Moon 1:54 AM MDT (9/24) 4:54 PM MDT (9/24)
Length of Visible Light 12h 57m
Length of Day
12h 04m
Waning Crescent, 22% of the Moon is Illuminated
Sep 24
Waning Crescent
Sep 28
New
Oct 5
First Quarter
Oct 13
Full
Oct 21
Last Quarter

Hourly Weather History & Observations

Time (MDT) Temp. Windchill Dew Point Humidity Pressure Visibility Wind Dir Wind Speed Gust Speed Precip Events Conditions
12:53 AM 61.0 °F - 30.9 °F 32% 29.98 in 10.0 mi North 9.2 mph - N/A   Clear
1:53 AM 55.0 °F - 30.0 °F 38% 30.00 in 10.0 mi Calm Calm - N/A   Clear
2:53 AM 51.1 °F - 28.0 °F 41% 30.01 in 10.0 mi ENE 4.6 mph - N/A   Clear
3:53 AM 51.1 °F - 27.0 °F 39% 30.01 in 10.0 mi East 4.6 mph - N/A   Clear
4:53 AM 44.1 °F 41.5 °F 25.0 °F 47% 30.04 in 10.0 mi East 4.6 mph - N/A   Clear
5:53 AM 50.0 °F - 28.0 °F 43% 30.04 in 10.0 mi ENE 6.9 mph - N/A   Clear
6:53 AM 46.0 °F - 28.9 °F 51% 30.07 in 10.0 mi Calm Calm - N/A   Clear
7:53 AM 48.9 °F - 28.0 °F 44% 30.09 in 10.0 mi East 4.6 mph - N/A   Clear
8:53 AM 57.0 °F - 28.9 °F 34% 30.10 in 10.0 mi ESE 10.4 mph - N/A   Clear
9:53 AM 63.0 °F - 33.1 °F 33% 30.09 in 10.0 mi SSE 9.2 mph - N/A   Clear
10:53 AM 66.0 °F - 30.0 °F 26% 30.07 in 10.0 mi SE 6.9 mph - N/A   Clear
12:53 PM 73.9 °F - 34.0 °F 23% 29.98 in 10.0 mi Variable 3.5 mph - N/A   Clear
1:53 PM 77.0 °F - 32.0 °F 19% 29.95 in 10.0 mi Variable 4.6 mph - N/A   Clear
2:53 PM 79.0 °F - 28.0 °F 15% 29.92 in 10.0 mi West 9.2 mph - N/A   Clear
3:53 PM 79.0 °F - 30.9 °F 17% 29.90 in 10.0 mi SW 6.9 mph - N/A   Clear
4:53 PM 79.0 °F - 30.9 °F 17% 29.90 in 10.0 mi West 5.8 mph - N/A   Clear
5:53 PM 79.0 °F - 32.0 °F 18% 29.88 in 10.0 mi West 6.9 mph - N/A   Clear
6:53 PM 75.0 °F - 30.9 °F 20% 29.89 in 10.0 mi NW 6.9 mph - N/A   Clear
7:53 PM 71.1 °F - 30.0 °F 22% 29.90 in 10.0 mi North 6.9 mph - N/A   Clear
8:53 PM 69.1 °F - 28.9 °F 22% 29.89 in 10.0 mi NNW 11.5 mph - N/A   Clear
9:53 PM 70.0 °F - 30.0 °F 23% 29.88 in 10.0 mi North 9.2 mph - N/A   Clear
10:53 PM 60.1 °F - 30.9 °F 33% 29.91 in 10.0 mi SE 3.5 mph - N/A   Clear
11:53 PM 59.0 °F - 28.9 °F 32% 29.89 in 10.0 mi ENE 5.8 mph - N/A   Clear